When you browse on this site, cookies collect data to enhance your experience and personalize the content and advertising you see.
Visit our Privacy Policy to learn more. By continuing to use the site, you agree to this use of cookies and data.
  • In Romania
  • List of Countries
  • For 7 days
  • Water Temperature
  • Satellite Maps
  • Weather Map
  • Weather Widgets
  • user-avatar
    Login

    Hourly Weather Lourdes

    Today, 20 April, Saturday

    Time Temperature Precipitation Wind Pressure Humidity
    00:00 +10°C° 0 mm 1 mps 701 mmHg 89%
    01:00 +9°C° 0 mm 0 mps 700 mmHg 87%
    02:00 +8°C° 0 mm 0 mps 700 mmHg 85%
    03:00 +8°C° 0 mm 0 mps 700 mmHg 83%
    04:00 +8°C° 0 mm 0 mps 700 mmHg 80%
    05:00 +9°C° 0 mm 1 mps 700 mmHg 77%
    06:00 +10°C° 0 mm 1 mps 700 mmHg 74%
    07:00 +12°C° 0 mm 1 mps 700 mmHg 66%
    08:00 +13°C° 0 mm 1 mps 700 mmHg 59%
    09:00 +15°C° 0 mm 1 mps 700 mmHg 52%
    10:00 +16°C° 0 mm 2 mps 700 mmHg 50%
    11:00 +17°C° 0 mm 2 mps 700 mmHg 48%
    12:00 +18°C° 0 mm 3 mps 700 mmHg 47%
    13:00 +18°C° 0 mm 3 mps 699 mmHg 49%
    14:00 +18°C° 0 mm 3 mps 699 mmHg 51%
    15:00 +17°C° 0 mm 3 mps 699 mmHg 54%
    16:00 +16°C° 0.1 mm 3 mps 698 mmHg 60%
    17:00 +15°C° 0.1 mm 2 mps 698 mmHg 67%
    18:00 +13°C° 0.1 mm 2 mps 698 mmHg 73%
    19:00 +12°C° 0 mm 1 mps 698 mmHg 76%
    20:00 +11°C° 0 mm 1 mps 698 mmHg 79%
    21:00 +8°C° 0 mm 0 mps 698 mmHg 82%
    22:00 +8°C° 0 mm 0 mps 698 mmHg 82%
    23:00 +8°C° 0 mm 0 mps 698 mmHg 82%

    Tomorrow, 21 April, Sunday

    Time Temperature Precipitation Wind Pressure Humidity
    00:00 +7°C° 0 mm 0 mps 698 mmHg 82%
    01:00 +7°C° 0 mm 0 mps 697 mmHg 83%
    02:00 +7°C° 0 mm 0 mps 697 mmHg 85%
    03:00 +6°C° 0 mm 0 mps 696 mmHg 87%
    04:00 +6°C° 0.1 mm 0 mps 696 mmHg 87%
    05:00 +6°C° 0.1 mm 0 mps 695 mmHg 87%
    06:00 +6°C° 0.1 mm 0 mps 695 mmHg 87%
    07:00 +9°C° 0.1 mm 1 mps 695 mmHg 82%
    08:00 +10°C° 0.1 mm 1 mps 696 mmHg 78%
    09:00 +12°C° 0.1 mm 1 mps 696 mmHg 74%
    10:00 +12°C° 0.1 mm 2 mps 695 mmHg 73%
    11:00 +13°C° 0.1 mm 2 mps 695 mmHg 73%
    12:00 +13°C° 0.1 mm 2 mps 695 mmHg 73%
    13:00 +14°C° 0.2 mm 2 mps 694 mmHg 72%
    14:00 +14°C° 0.2 mm 2 mps 694 mmHg 71%
    15:00 +14°C° 0.2 mm 2 mps 694 mmHg 70%
    16:00 +13°C° 0.3 mm 2 mps 693 mmHg 74%
    17:00 +13°C° 0.3 mm 2 mps 693 mmHg 78%
    18:00 +12°C° 0.3 mm 1 mps 692 mmHg 83%
    19:00 +11°C° 0.1 mm 1 mps 692 mmHg 84%
    20:00 +10°C° 0.1 mm 1 mps 692 mmHg 85%
    21:00 +8°C° 0.1 mm 0 mps 692 mmHg 85%
    22:00 +8°C° 0.1 mm 0 mps 692 mmHg 86%
    23:00 +8°C° 0.1 mm 0 mps 691 mmHg 86%

    Day after tomorrow, 22 April, Monday

    Time Temperature Precipitation Wind Pressure Humidity
    00:00 +7°C° 0.1 mm 0 mps 691 mmHg 86%
    01:00 +7°C° 0.2 mm 0 mps 690 mmHg 87%
    02:00 +7°C° 0.2 mm 0 mps 689 mmHg 88%
    03:00 +7°C° 0.2 mm 0 mps 689 mmHg 88%
    04:00 +7°C° 0.3 mm 0 mps 688 mmHg 89%
    05:00 +7°C° 0.3 mm 0 mps 688 mmHg 89%
    06:00 +7°C° 0.3 mm 0 mps 688 mmHg 89%
    07:00 +9°C° 0.1 mm 0 mps 688 mmHg 84%
    08:00 +11°C° 0.1 mm 1 mps 688 mmHg 79%
    09:00 +13°C° 0.1 mm 1 mps 687 mmHg 74%
    10:00 +14°C° 0.2 mm 1 mps 687 mmHg 72%
    11:00 +14°C° 0.2 mm 1 mps 687 mmHg 71%
    12:00 +15°C° 0.2 mm 1 mps 686 mmHg 69%
    13:00 +15°C° 0.3 mm 1 mps 686 mmHg 70%
    14:00 +15°C° 0.3 mm 1 mps 685 mmHg 70%
    15:00 +15°C° 0.3 mm 0 mps 685 mmHg 70%
    16:00 +14°C° 0.3 mm 0 mps 685 mmHg 74%
    17:00 +13°C° 0.3 mm 0 mps 684 mmHg 78%
    18:00 +12°C° 0.3 mm 0 mps 684 mmHg 82%
    19:00 +12°C° 0.2 mm 1 mps 684 mmHg 83%
    20:00 +11°C° 0.2 mm 1 mps 684 mmHg 84%
    21:00 +10°C° 0.2 mm 1 mps 684 mmHg 86%
    22:00 +9°C° 0.1 mm 2 mps 684 mmHg 85%
    23:00 +9°C° 0.1 mm 2 mps 683 mmHg 84%

    23 April, Tuesday

    Time Temperature Precipitation Wind Pressure Humidity
    00:00 +9°C° 0.1 mm 2 mps 683 mmHg 83%
    01:00 +9°C° 0.2 mm 2 mps 683 mmHg 82%
    02:00 +9°C° 0.2 mm 2 mps 682 mmHg 81%
    03:00 +10°C° 0.2 mm 2 mps 682 mmHg 79%
    04:00 +10°C° 0.3 mm 2 mps 682 mmHg 79%
    05:00 +10°C° 0.3 mm 2 mps 682 mmHg 79%
    06:00 +10°C° 0.3 mm 2 mps 682 mmHg 79%
    07:00 +13°C° 0.2 mm 2 mps 682 mmHg 76%
    08:00 +14°C° 0.2 mm 1 mps 683 mmHg 72%
    09:00 +16°C° 0.2 mm 1 mps 683 mmHg 68%
    10:00 +16°C° 1.2 mm 1 mps 683 mmHg 70%
    11:00 +16°C° 1.2 mm 1 mps 683 mmHg 72%
    12:00 +16°C° 1.2 mm 2 mps 683 mmHg 74%
    13:00 +17°C° 0.5 mm 2 mps 683 mmHg 70%
    14:00 +17°C° 0.5 mm 2 mps 683 mmHg 66%
    15:00 +18°C° 0.5 mm 2 mps 682 mmHg 62%
    16:00 +16°C° 1.8 mm 2 mps 682 mmHg 72%
    17:00 +14°C° 1.8 mm 2 mps 682 mmHg 81%
    18:00 +12°C° 1.8 mm 2 mps 682 mmHg 91%
    19:00 +10°C° 1 mm 2 mps 683 mmHg 92%
    20:00 +9°C° 1 mm 2 mps 684 mmHg 92%
    21:00 +8°C° 1 mm 2 mps 684 mmHg 93%
    22:00 +7°C° 0 mm 2 mps 685 mmHg 92%
    23:00 +7°C° 0 mm 2 mps 685 mmHg 92%

    24 April, Wednesday

    Time Temperature Precipitation Wind Pressure Humidity
    00:00 +6°C° 0 mm 2 mps 685 mmHg 92%
    01:00 +6°C° 0 mm 2 mps 685 mmHg 90%
    02:00 +5°C° 0 mm 2 mps 685 mmHg 89%
    03:00 +6°C° 0 mm 1 mps 685 mmHg 87%
    04:00 +5°C° 0 mm 2 mps 686 mmHg 85%
    05:00 +5°C° 0 mm 2 mps 686 mmHg 84%
    06:00 +5°C° 0 mm 2 mps 686 mmHg 82%
    07:00 +7°C° 0 mm 2 mps 687 mmHg 71%
    08:00 +9°C° 0 mm 2 mps 687 mmHg 61%
    09:00 +12°C° 0 mm 2 mps 688 mmHg 50%
    10:00 +12°C° 0 mm 3 mps 688 mmHg 46%
    11:00 +13°C° 0 mm 3 mps 688 mmHg 43%
    12:00 +14°C° 0 mm 4 mps 688 mmHg 40%
    13:00 +14°C° 0 mm 4 mps 688 mmHg 41%
    14:00 +14°C° 0 mm 3 mps 688 mmHg 43%
    15:00 +14°C° 0 mm 3 mps 688 mmHg 45%
    16:00 +13°C° 0 mm 3 mps 688 mmHg 50%
    17:00 +13°C° 0 mm 2 mps 688 mmHg 55%
    18:00 +12°C° 0 mm 2 mps 688 mmHg 61%
    19:00 +12°C° 0.2 mm 2 mps 688 mmHg 64%
    20:00 +10°C° 0.2 mm 2 mps 689 mmHg 68%
    21:00 +9°C° 0.2 mm 2 mps 689 mmHg 71%
    22:00 +9°C° 0.5 mm 2 mps 689 mmHg 74%
    23:00 +9°C° 0.5 mm 2 mps 689 mmHg 76%

    25 April, Thursday

    Time Temperature Precipitation Wind Pressure Humidity
    00:00 +9°C° 0.5 mm 2 mps 689 mmHg 79%
    01:00 +9°C° 1.1 mm 1 mps 689 mmHg 82%
    02:00 +9°C° 1.1 mm 1 mps 689 mmHg 86%
    03:00 +9°C° 1.1 mm 1 mps 689 mmHg 90%
    04:00 +9°C° 1.2 mm 1 mps 689 mmHg 90%
    05:00 +9°C° 1.2 mm 1 mps 690 mmHg 91%
    06:00 +9°C° 1.2 mm 1 mps 690 mmHg 92%
    07:00 +9°C° 0.8 mm 1 mps 690 mmHg 90%
    08:00 +10°C° 0.8 mm 1 mps 691 mmHg 89%
    09:00 +10°C° 0.8 mm 2 mps 691 mmHg 87%
    10:00 +12°C° 1.2 mm 2 mps 692 mmHg 80%
    11:00 +13°C° 1.2 mm 2 mps 692 mmHg 72%
    12:00 +13°C° 1.2 mm 3 mps 693 mmHg 64%
    13:00 +12°C° 0.9 mm 3 mps 693 mmHg 68%
    14:00 +11°C° 0.9 mm 3 mps 693 mmHg 71%
    15:00 +10°C° 0.9 mm 3 mps 693 mmHg 75%
    16:00 +9°C° 0.6 mm 3 mps 693 mmHg 78%
    17:00 +9°C° 0.6 mm 3 mps 694 mmHg 82%
    18:00 +8°C° 0.6 mm 2 mps 695 mmHg 85%
    19:00 +7°C° 0.4 mm 2 mps 695 mmHg 89%
    20:00 +7°C° 0.4 mm 1 mps 696 mmHg 92%
    21:00 +7°C° 0.4 mm 1 mps 697 mmHg 95%
    22:00 +6°C° 0 mm 1 mps 698 mmHg 95%
    23:00 +6°C° 0 mm 1 mps 698 mmHg 94%
    Show more